Regional Weather Roundup
Issued by NWS

Home | Current Version | Previous Version | Graphics & Text | Print | Product List | Glossary Off
Versions: 1 2 3 4 5 6 7 8 9 10 11 12 13 14 15 16 17 18 19 20 21 22 23 24 25 26 27 28 29 30 31 32 33 34 35 36 37 38 39 40 41 42 43 44 45 46 47 48 49 50

158
ASUS43 KTOP 111559
RWRKS

WEATHER ROUNDUP FOR KANSAS
NATIONAL WEATHER SERVICE GOODLAND KS
1000 AM CST THU FEB 11 2016

NOTE:  "FAIR" INDICATES FEW OR NO CLOUDS BELOW 12,000 FEET WITH NO
SIGNIFICANT WEATHER AND/OR OBSTRUCTIONS TO VISIBILITY.

KSZ001>006-013>018-027>032-041>047-111700-
NORTHWEST KANSAS

CITY           SKY/WX    TMP DP  RH WIND       PRES   REMARKS
GOODLAND       SUNNY     39  25  57 W9        30.14F
HAYS           CLOUDY    28  18  64 E5        30.24R
HILL CITY      CLOUDY    29  27  92 SE5       30.22S FOG
RUSSELL        MOSUNNY   31  25  78 NE9       30.23R
$$

KSZ061>065-074>080-084>089-111700-
SOUTHWEST KANSAS

CITY           SKY/WX    TMP DP  RH WIND       PRES   REMARKS
DODGE CITY     SUNNY     33  26  75 NE8       30.23R
ELKHART          N/A     45  27  49 SW3         N/A
GARDEN CITY    SUNNY     38  30  73 CALM      30.21R
GREAT BEND     CLOUDY    28  19  69 E7        30.24S
LIBERAL        SUNNY     41  30  65 N3        30.23R
$$

KSZ066>073-081>083-090>101-111700-
SOUTHEAST KANSAS

CITY           SKY/WX    TMP DP  RH WIND       PRES   REMARKS
CHANUTE        SUNNY     31  22  69 NE12      30.26R WCI  22
COFFEYVILLE    SUNNY     34  22  61 NE15      30.25S WCI  24
HUTCHINSON     CLOUDY    32  23  69 NE9       30.25F
MEDICINE LODGE   N/A     36  26  67 NE12      30.25R WCI  28
NEWTON         SUNNY     30  19  64 NE9       30.26S
PARSONS        SUNNY     32  22  66 NE9       30.26R
WICHITA INTL   MOSUNNY   33  22  63 NE13      30.26R WCI  24
WICHITA JABRA  SUNNY     31  23  72 NE9       30.26R
WINFIELD       SUNNY     35  23  61 NE14      30.25R WCI  26
$$

KSZ007>012-019>026-033>040-048>060-102>105-111700-
NORTHEAST KANSAS

CITY           SKY/WX    TMP DP  RH WIND       PRES   REMARKS
CONCORDIA      CLOUDY    23  21  92 NE5       30.27S FOG
EMPORIA        SUNNY     28  21  75 NE8       30.28R
LAWRENCE       SUNNY     28  20  71 E10       30.33R WCI  19
MANHATTAN      CLOUDY    25  21  85 NE7       30.31R
OLATHE IND     SUNNY     28  19  69 E8        30.30R
OLATHE EXE     SUNNY     27  18  69 E7        30.30R
SALINA         CLOUDY    28  23  81 NE6       30.29R
TOPEKA BILLARD PTSUNNY   29  20  69 NE9       30.31R
TOPEKA FORBES  MOSUNNY   29  20  69 E9        30.30R
$$




USA.gov is the U.S. government's official web portal to all federal, state and local government web resources and services.